Temp
6 6 4 4 3 3 2 2 1 1 1 1 -0 -1 -2 -1 -1 -2 -2 -2 -2 -2
5 5 4 3 2 2 1 1 1 0 0 -0 -1 -1 -2 -1 -1 -2 -2 -2 -2 -3
4 4 4 3 2 1 1 0 0 -0 -0 -1 -1 -1 -2 -1 -2 -2 -2 -2 -3 -3
4 4 3 2 1 0 -0 -1 -1 -1 -1 -1 -2 -2 -2 -2 -3 -2 -2 -3 -3 -3
4 3 2 1 0 -1 -1 -1 -2 -2 -2 -2 -2 -2 -3 -3 -3 -3 -3 -3 -3 -4
3 2 1 0 -0 -1 -1 -2 -2 -2 -2 -2 -3 -3 -3 -3 -3 -3 -4 -4 -5 -5
2 1 1 -0 -1 -1 -2 -2 -2 -2 -2 -3 -3 -4 -4 -4 -4 -4 -5 -5 -6 -6
2 1 0 -1 -1 -2 -2 -2 -2 -2 -3 -4 -4 -5 -5 -5 -5 -5 -5 -6 -7 -7
1 0 -0 -1 -2 -2 -2 -2 -3 -3 -3 -4 -4 -4 -4 -5 -6 -6 -6 -7 -7 -8
1 -0 -1 -1 -2 -2 -3 -3 -3 -3 -4 -4 -5 -4 -5 -5 -6 -7 -7 -8 -8 -9
-0 -1 -1 -1 -2 -2 -3 -3 -3 -4 -4 -5 -6 -5 -5 -6 -7 -8 -8 -9 -9 -10
-1 -2 -2 -2 -2 -3 -3 -3 -3 -4 -5 -5 -6 -5 -6 -6 -7 -9 -9 -10 -10 -11
-2 -2 -2 -3 -3 -3 -4 -4 -4 -5 -5 -5 -6 -6 -7 -7 -8 -9 -10 -10 -10 -11
-2 -3 -3 -3 -4 -4 -4 -4 -5 -5 -5 -6 -6 -7 -7 -8 -8 -9 -10 -10 -10 -11
Height
1560 1560 1560 1560 1556 1555 1552 1549 1544 1541 1538 1536 1533 1531 1528 1528 1527 1525 1523 1522 1520 1518
1558 1557 1556 1555 1553 1551 1548 1544 1540 1536 1534 1532 1529 1527 1524 1524 1523 1521 1519 1518 1516 1514
1555 1553 1552 1551 1549 1546 1542 1538 1535 1532 1530 1528 1526 1523 1521 1520 1517 1515 1515 1514 1511 1509
1550 1549 1549 1546 1544 1541 1537 1534 1530 1527 1525 1522 1520 1517 1516 1513 1510 1510 1510 1509 1507 1504
1546 1545 1544 1542 1539 1535 1532 1529 1525 1522 1519 1517 1515 1513 1510 1507 1506 1506 1505 1504 1502 1499
1542 1540 1539 1537 1534 1531 1527 1524 1520 1517 1515 1512 1509 1505 1504 1503 1503 1502 1501 1499 1496 1494
1537 1535 1533 1531 1528 1525 1522 1518 1515 1513 1510 1507 1504 1503 1501 1500 1499 1498 1496 1493 1491 1488
1532 1530 1528 1525 1523 1520 1516 1513 1511 1508 1505 1502 1500 1497 1496 1496 1495 1494 1491 1488 1485 1481
1526 1524 1522 1520 1517 1514 1511 1508 1505 1503 1501 1498 1497 1493 1493 1492 1492 1489 1486 1483 1479 1475
1520 1518 1516 1514 1512 1509 1506 1503 1501 1499 1496 1494 1492 1490 1489 1489 1487 1484 1481 1477 1474 1470
1515 1513 1511 1508 1506 1504 1501 1498 1496 1495 1493 1491 1488 1487 1486 1484 1482 1479 1476 1472 1469 1466
1509 1507 1505 1502 1499 1497 1495 1494 1492 1490 1488 1487 1485 1483 1482 1480 1477 1474 1471 1468 1465 1461
1502 1500 1498 1496 1493 1491 1490 1488 1487 1485 1483 1482 1481 1479 1477 1475 1473 1470 1467 1465 1462 1458
1496 1494 1491 1489 1488 1487 1485 1483 1481 1480 1478 1477 1476 1474 1473 1471 1469 1466 1464 1461 1458 1455
Wind_Speed
8 10 8 12 16 15 17 18 20 19 17 14 13 13 15 12 14 12 11 11 12 14
9 12 15 18 17 17 17 18 19 18 14 13 12 14 14 16 17 14 14 14 15 16
9 13 16 18 18 18 18 19 18 17 16 15 17 18 17 20 17 16 16 17 18 19
10 14 17 17 16 17 19 18 18 17 16 17 19 23 21 21 20 15 16 17 18 20
12 16 12 13 16 17 18 18 18 17 16 17 19 22 23 18 13 14 18 19 20 21
10 11 12 14 17 17 18 18 17 17 17 17 19 20 16 12 12 15 17 15 17 22
11 12 14 15 17 18 19 19 17 16 17 18 16 13 12 12 13 14 11 14 17 22
13 14 15 16 18 19 20 18 17 17 16 14 11 13 14 11 10 11 15 17 19 18
16 15 16 18 17 18 19 18 16 16 16 13 11 20 15 11 10 15 16 18 17 17
17 17 17 17 17 18 18 17 14 14 12 12 9 12 10 15 16 17 16 15 15 16
16 16 17 16 17 18 17 14 13 13 11 8 9 13 16 16 19 16 13 14 14 15
17 15 16 17 17 18 16 14 13 12 10 8 9 14 15 20 19 14 15 13 13 15
15 15 16 17 17 14 13 13 11 11 10 13 12 16 18 19 16 14 14 13 13 16
15 15 17 15 12 11 12 12 12 14 14 14 14 17 19 18 16 14 15 13 14 13
Wind_Direction
0 356 2 344 340 333 324 319 316 311 299 280 267 254 287 297 291 276 277 283 290 297
358 2 354 347 344 332 325 322 319 316 302 281 260 271 288 300 290 276 278 285 292 298
349 350 345 339 335 330 326 326 322 314 301 281 280 280 288 292 288 270 275 287 290 294
335 335 328 327 330 328 326 323 318 311 298 283 276 283 282 284 291 267 274 289 292 296
322 314 315 320 325 323 321 318 314 310 303 293 291 285 286 288 275 266 280 289 296 298
297 304 309 315 320 319 319 316 313 309 302 296 289 297 294 279 269 277 288 285 295 300
290 297 304 307 314 314 316 315 311 305 301 297 296 292 286 277 279 286 287 298 300 302
289 294 297 302 308 312 316 310 303 303 299 296 295 290 285 281 281 290 301 302 302 302
293 290 294 299 300 309 312 309 305 300 288 290 292 299 289 275 295 302 307 306 306 307
293 290 294 295 298 306 311 310 308 301 290 295 273 297 288 299 305 308 308 308 310 311
292 291 295 295 297 304 306 301 301 297 292 280 265 294 300 308 311 312 310 311 312 313
296 297 296 295 297 297 297 294 289 283 273 264 264 295 301 312 313 311 316 317 316 310
299 297 297 299 297 289 287 285 283 276 268 265 268 288 305 314 316 314 319 321 319 318
301 300 302 301 289 284 279 278 280 284 280 277 282 294 303 308 313 316 318 318 320 316